Regional Weather Roundup
Issued by NWS Little Rock, AR

Home | Current Version | Previous Version | Graphics & Text | Print | Product List | Glossary On
Versions: 1 2 3 4 5 6 7 8 9 10 11 12 13 14 15 16 17 18 19 20 21 22 23 24 25 26 27 28 29 30 31 32
000
ASUS44 KLZK 232305
RWRLZK

WEATHER ROUNDUP FOR ARKANSAS
NATIONAL WEATHER SERVICE LITTLE ROCK AR
500 PM CST MON JAN 23 2017

NOTE: "FAIR" INDICATES FEW OR NO CLOUDS BELOW 12,000 FEET WITH NO
SIGNIFICANT WEATHER AND/OR OBSTRUCTIONS TO VISIBILITY.

ARZ001-003-010-029-240000-
NORTHWEST ARKANSAS

CITY           SKY/WX    TMP DP  RH WIND       PRES   REMARKS
FAYETTEVILLE   CLEAR     53  30  41 CALM      29.83R
FORT SMITH     CLEAR     57  31  37 SE5       29.83F
HARRISON       CLEAR     50  33  52 CALM      29.83S
BENTONVILLE    CLEAR    N/A N/A N/A CALM      29.83R
ROGERS         CLEAR     52  31  44 CALM      29.83S
SILOAM SPGS    CLEAR     54  30  40 S5        29.82S
HIGHFILL       CLEAR     52  30  43 S3        29.82S
SPRINGDALE     CLEAR     54  30  40 CALM      29.84S
$$

ARZ004-005-016-240000-
NORTH CENTRAL ARKANSAS

CITY           SKY/WX    TMP DP  RH WIND       PRES   REMARKS
BATESVILLE     CLEAR     54  36  50 NW6       29.84S
FLIPPIN        CLEAR     52  34  50 CALM      29.82S
MTN HOME       CLEAR     49  34  56 NW3       29.82F
$$

ARZ040-041-240000-
WEST CENTRAL ARKANSAS

CITY           SKY/WX    TMP DP  RH WIND       PRES   REMARKS
MENA           CLEAR     61  32  33 CALM      29.83F
MOUNT IDA      CLEAR     59  28  30 N3        29.82R
$$

ARZ009-017-025-026-028-240000-
NORTHEAST ARKANSAS

CITY           SKY/WX    TMP DP  RH WIND       PRES   REMARKS
CORNING        FAIR      50  37  62 NW8       29.84R
JONESBORO      CLEAR     52  38  58 NW7       29.83R
NEWPORT        CLEAR     52  38  58 NW8         N/A
WALNUT RIDGE   CLEAR     52  36  54 NW8       29.83R
BLYTHEVILLE    CLOUDY    50  40  68 NE8       29.83R
NW BLYTHEVILLE MOCLDY    50  39  66 NE6       29.82R
$$

ARZ022-023-033-042-044-240000-
CENTRAL ARKANSAS

CITY           SKY/WX    TMP DP  RH WIND       PRES   REMARKS
LITTLE ROCK    CLEAR     55  36  48 W7        29.85S
JACKSONVILLE   CLEAR     56  41  56 W6        29.83S
SEARCY         CLEAR     54  37  52 NW5       29.85F
HOT SPRINGS    CLEAR     58  34  40 CALM      29.84S
RUSSELLVILLE   CLEAR     55  37  50 W6        29.83S
CLINTON        FAIR      55  34  44 NW5       29.83F
$$

ARZ036-240000-
EAST ARKANSAS

CITY           SKY/WX    TMP DP  RH WIND       PRES   REMARKS
WEST MEMPHIS   CLOUDY    50  41  71 NW5       29.83R
$$

ARZ050-053-066-070-073-240000-
SOUTHWEST ARKANSAS

CITY           SKY/WX    TMP DP  RH WIND       PRES   REMARKS
ARKADELPHIA    FAIR      60  39  45 CALM      29.85F
CAMDEN         CLEAR     59  34  38 W3        29.86S
TEXARKANA      CLEAR     60  36  40 S3        29.85F
EL DORADO        N/A    N/A N/A N/A MISG      29.87R
DE QUEEN       CLEAR     62  35  36 SW5       29.82F
$$

ARZ056-057-069-240000-
SOUTHEAST ARKANSAS

CITY           SKY/WX    TMP DP  RH WIND       PRES   REMARKS
PINE BLUFF     CLEAR     56  38  50 NW7       29.85S
STUTTGART      CLEAR     54  37  54 NW7       29.86S
MONTICELLO     CLEAR     56  39  53 NW6       29.85R

$$






USA.gov is the U.S. government's official web portal to all federal, state and local government web resources and services.